Location: Les Salelles
(44.4192°N, 4.1044°E)
Time: 07:22:44
(UTC+00:00)

Daily predictions for brighter satellites

Satellite Brightness Start Highest point End
(mag) Time Altitude Azimuth Time Altitude Azimuth Time Altitude Azimuth
Tsikada Rocket 4.2 16:55:42 10° S 17:02:03 81° W 17:08:20 10° N
NOAA 12 4.1 16:57:33 10° SSE 17:02:46 79° ENE 17:08:01 10° N
SL-14 R/B 3.3 17:00:09 10° S 17:03:57 63° E 17:07:50 10° NNE
RESURS DK-1 3.0 17:01:21 10° SW 17:05:25 56° WNW 17:09:30 10° NNE
MOS 1 Rocket 4.4 17:05:23 10° NE 17:08:31 19° E 17:11:36 10° SE
ATLAS 3B R/B 3.2 17:01:44 10° NW 17:08:42 74° WSW 17:15:57 10° SSE
Cosmos 2228 3.2 17:05:07 10° N 17:09:16 50° ENE 17:13:26 10° SSE
Cosmos 1400 Rocket 4.2 17:05:36 10° NNW 17:09:32 44° W 17:13:24 10° SSW
BREEZE-M DEB (TANK) 3.5 17:07:03 10° W 17:09:52 36° SSW 17:12:52 10° SE
Meteor 2-5 Rocket 3.7 17:07:14 10° S 17:12:48 76° E 17:18:19 10° NNE
CZ-4C R/B 3.4 17:08:52 10° WSW 17:13:33 35° NW 17:19:07 10° NNE
SKYMED 2 4.4 17:10:45 10° NE 17:14:35 29° E 17:18:23 10° SSE
SJ 16-02 2.9 17:13:02 10° SE 17:15:48 16° E 17:18:33 10° ENE
CZ-3B R/B 3.1 17:14:50 10° NNW 17:16:40 18° NNE 17:19:49 10° ENE
Cosmos 1777 Rocket 4.3 17:13:48 10° S 17:18:50 48° ESE 17:23:54 10° NNE
CORIOLIS 4.2 17:14:06 10° SSE 17:19:30 90° WSW 17:24:56 10° NNW
Cosmos 2263 Rocket 2.5 17:15:00 10° SSW 17:20:39 71° WNW 17:26:21 10° NNE
NOAA 11 4.3 17:19:27 10° SSE 17:24:58 89° W 17:30:30 10° NNW
Cosmos 1354 Rocket 4.4 17:19:57 10° SSW 17:25:15 67° WNW 17:30:35 10° NNE
Cosmos 1455 3.6 17:23:55 10° NNE 17:26:36 18° ENE 17:29:16 10° ESE
Cosmos 2058 Rocket 3.6 17:24:30 10° N 17:28:42 37° ENE 17:32:52 10° SE
Cosmos 1300 2.8 17:27:11 10° N 17:31:00 80° W 17:34:48 10° S
X-37B 2.3 17:28:30 10° SSW 17:31:05 23° SSE 17:33:14 12° E
ARGOS 4.2 17:33:11 10° ESE 17:37:16 23° ENE 17:41:23 10° NNE
Okean 1-7 Rocket 4.1 17:35:49 10° SSE 17:40:03 41° E 17:44:21 10° NNE
CREW DRAGON DEMO-1 DEB 4.2 17:38:23 10° NW 17:40:46 22° NNE 17:41:52 18° NE
Lacrosse 5 2.4 17:36:24 10° NW 17:41:10 40° NNE 17:45:00 15° E
ISS -2.8 17:40:09 10° SSW 17:43:14 34° SE 17:45:00 20° E
Cosmos 1943 4.0 17:38:05 10° NNW 17:43:38 56° WSW 17:49:07 10° S
Cosmos 1939 Rocket 2.9 17:40:01 10° SSE 17:44:08 87° ENE 17:48:15 10° NNW
Cosmos 1726 Rocket 3.5 17:39:54 10° N 17:44:18 85° E 17:48:41 10° S
ERS-2 2.7 17:42:03 11° NNE 17:45:17 35° E 17:48:37 10° SSE
EXPRESS MD2 4.2 17:37:57 10° WNW 17:46:48 77° NNE 17:50:21 15° ESE
CZ-2C R/B 4.1 17:45:49 17° ENE 17:46:53 17° E 17:50:30 10° SE
Meteor 1-24 Rocket 3.9 17:41:36 10° SSW 17:46:57 71° WNW 17:52:15 10° N
COSMOS 2455 2.8 17:42:01 10° SSW 17:48:00 72° ESE 17:54:02 10° NE
Cosmos 1626 Rocket 4.4 17:47:39 10° SSE 17:51:21 28° E 17:54:01 16° NE
Cosmos 1844 4.2 17:47:58 10° S 17:53:07 38° ESE 17:57:10 16° NE
Cosmos 1833 Rocket 4.4 17:51:53 10° N 17:54:39 14° NE 17:54:41 14° NE
IRS-1C Rocket 4.0 17:49:46 10° SSE 17:54:57 66° ENE 18:00:11 10° N
CZ-4 R/B 1.6 17:52:32 10° SE 17:56:28 46° ENE 18:00:21 10° N
Cosmos 1315 Rocket 4.4 17:53:04 10° NNW 17:56:46 38° W 18:00:30 10° SSW
Feng Yun 1-1 Rocket 4.2 17:52:14 10° SSE 17:57:39 89° WSW 18:03:13 10° NNW
COSMO-SKYMED 1 2.6 17:58:28 10° NNE 18:02:50 85° WNW 18:07:10 10° SSW
Cosmos 2279 Rocket 4.5 17:57:57 10° NNW 18:04:10 65° W 18:10:18 10° S
USA 267 4.2 18:04:12 21° E 18:06:59 28° SE 18:12:24 10° S
CZ-4 R/B 4.5 18:05:47 10° SSE 18:09:55 84° W 18:14:05 10° NNW
Okean-O 2.5 18:08:12 10° SSE 18:12:35 64° ENE 18:16:59 10° N
CZ-4B R/B 2.5 18:09:40 10° N 18:12:55 44° WNW 18:16:05 10° SW
CZ-2C R/B 3.2 18:08:48 10° SSE 18:14:03 82° WSW 18:19:39 10° NNW
Cosmos 1844 Rocket 2.6 18:09:23 10° SSW 18:15:01 71° ESE 18:19:24 17° NNE
Okean O Rocket 4.0 18:11:58 10° SSW 18:15:41 26° W 18:19:25 10° NW
H-2A R/B 1.9 18:11:38 10° SSE 18:16:31 63° ENE 18:21:34 10° N
OE (NEXTSAT) 4.2 18:13:38 10° W 18:17:05 78° N 18:17:46 54° ENE
Cosmos 923 Rocket 4.1 18:12:05 10° NNW 18:17:19 52° ENE 18:22:30 10° SE
Meteor 1-21 Rocket 4.1 18:12:21 10° S 18:17:46 62° E 18:23:14 10° NNE
Aureole 2 Rocket 2.2 18:15:29 10° SSW 18:18:27 70° WNW 18:19:28 38° N
ATLAS 2AS CENTAUR R/B 4.5 18:12:20 10° W 18:18:57 28° NNW 18:25:24 10° NNE
Cosmos 1689 Rocket 2.0 18:20:00 63° SSE 18:20:00 63° SSE 18:22:32 10° S
Cosmos 158 Rocket 4.0 18:17:27 10° NNW 18:22:46 64° ENE 18:28:06 10° SSE
Cosmos 1898 Rocket 4.1 18:18:44 10° SSE 18:23:28 34° ESE 18:23:42 34° E
Cosmos 1680 Rocket 3.7 18:19:39 10° N 18:24:42 46° ENE 18:26:36 32° ESE
Cosmos 1602 Rocket 3.5 18:27:06 10° S 18:31:18 54° E 18:31:34 52° ENE
Cosmos 1818 3.5 18:26:33 10° SW 18:31:59 87° WNW 18:34:52 29° NNE
SAR-Lupe-4 3.7 18:31:28 30° N 18:33:06 74° WNW 18:36:39 10° SSW
Meteor 2-10 Rocket 4.4 18:28:46 10° NNW 18:34:07 52° W 18:39:13 10° S
YAOGAN 1 2.6 18:30:13 10° S 18:34:32 79° WSW 18:38:53 10° NNW
Cosmos 489 Rocket 4.5 18:30:06 10° NNW 18:36:30 89° WSW 18:42:50 10° SSE
CSL-04 Rocket 3.5 18:33:01 10° SSE 18:38:21 68° ENE 18:43:48 10° N
Helios 1A Rocket 2.9 18:35:18 10° SSE 18:39:27 86° W 18:43:37 10° NNW
USA 234 3.9 18:40:20 32° NE 18:42:04 38° NNE 18:48:00 10° NW
Cosmos 1092 Rocket 3.8 18:38:35 10° S 18:44:47 80° E 18:50:58 10° N
ATLAS 5 CENTAUR R/B 3.9 18:42:36 10° WNW 18:45:22 17° NNW 18:47:38 12° N
MOS 1 Rocket 4.4 18:42:56 10° N 18:46:57 38° WNW 18:50:55 10° SW
Iridium 4 Rocket 3.5 18:41:40 10° N 18:47:23 73° E 18:52:37 10° S
Cosmos 1812 Rocket 4.2 18:45:57 10° N 18:48:54 41° N 18:48:54 41° N
SJ 16-02 2.2 18:49:40 10° SW 18:53:56 49° WNW 18:55:59 27° N
Cosmos 2344 4.4 18:45:07 10° NW 18:54:09 58° NE 18:59:35 35° ESE
Cosmos 1937 Rocket 4.4 18:53:31 10° S 18:56:46 35° SSE 18:56:46 35° SSE
Cosmos 2112 Rocket 3.8 18:56:57 10° NNW 19:02:14 81° ENE 19:02:18 81° E
Cosmos 1455 3.9 18:58:51 10° NNW 19:02:17 32° W 19:05:43 10° SSW
X-37B 3.1 19:04:15 10° WSW 19:05:31 22° WSW 19:05:31 22° WSW
Cosmos 1703 4.2 19:03:47 10° SSW 19:07:03 45° WSW 19:07:03 45° WSW
COSMOS 2406 4.2 19:11:22 10° NNW 19:14:49 34° N 19:14:49 34° N
ARGOS 3.8 19:11:55 10° S 19:17:09 54° W 19:22:26 10° NNW
Cosmos 44 3.8 19:15:08 10° SW 19:18:46 53° SW 19:18:46 53° SW
ISS -1.0 19:16:45 10° W 19:17:58 19° W 19:17:58 19° W
Lacrosse 5 2.6 19:19:23 10° WNW 19:24:15 48° SW 19:24:15 48° SW
CZ-2C R/B 2.9 19:27:19 68° NW 19:27:39 70° WNW 19:33:13 10° SSW
CZ-4 R/B 4.4 19:29:12 10° SW 19:31:42 16° W 19:34:12 10° NW
NOSS 3-1 (C) 4.0 19:25:44 10° NW 19:33:20 88° NE 19:34:39 68° SE
Cosmos 1553 Rocket 4.4 19:31:18 10° N 19:36:14 56° NNW 19:36:14 56° NNW
Cosmos 1833 Rocket 4.3 19:34:06 10° NNW 19:36:25 25° NNW 19:36:25 25° NNW
Cosmos 2082 Rocket 4.3 19:36:33 10° NNW 19:37:48 16° N 19:37:48 16° N
USA 229 DEB 4.0 19:42:55 10° NW 19:49:18 70° NNW 19:49:18 70° NNW
USA 229 4.0 19:43:01 10° NW 19:49:21 69° NNW 19:49:21 69° NNW
USA 267 3.4 19:51:34 65° WSW 19:51:34 65° WSW 19:57:02 10° SW
NOSS 3-1 (A) 4.2 19:58:18 10° NW 20:04:26 64° NW 20:04:26 64° NW
USA 234 4.5 20:27:40 35° NW 20:27:40 35° NW 20:31:12 10° NW
